Погода Ирбейское

Погода Ирбейское : погода сейчас, прогноз погоды и архив. Всё, что Вы хотите узнать о погоде Ирбейское!

Поиск расширенной информации на нашем сайте:

Другие новости

Новости СМИ2

Главная страница сайта

Новости сайта

03.07.2017

Напоминаем, что на нашем специализированном сайте Метеоцентр.Азия вы можете получить высокодетализированные автоматические прогнозы погоды по пунктам России, СНГ и мира в авиационном формате (включающие направление и скорость ветра, видимость, явления погоды, количество и форму облачности, нижнюю и верхнюю границу облачности).

Рекомендуем: купить подарок мужу в Екатеринбурге

Погода Ирбейское - сегодня

Время (UTC), дата Ветер
(°,м/с) 
Видим.   Явления Облачность Т
(°С)
Тd
(°С)
f(%) Тe
(°С)
Pmin
(гПа)
dP
(гПа)
Po
(мм)
O2
(г/м3)
Тmin Tmax R s Состояние
почвы
21 15.04.18 тихо ()   н/о    4/1 1000 м средняя 
[Sc|Ac lent]
-3.1 -4.8 88 -3  1011.8  -0.2  735  300           
00 16.04.18 тихо ()   20000 м    9/4 1000 м средняя, верхняя 
[Sc|Ac trans|Ci sp]
-1.8 -3.8 86 -2  1012.2  0.5  736  299  -3.7        замёрзшая 
03 16.04.18 240 (ЮЗ) 20000 м    9/3 1000 м средняя 
[Sc|Ac trans]
+5.9 -6.2 41 +4  1010.1  -1.2  735  290           
06 16.04.18 250 (З) 5{10}  20000 м    8/3 1000 м средняя 
[Sc|Ac trans]
+10 -7 29 +9  1007.5  -2  733  286           
09 16.04.18 260 (З) 5{10}  20000 м    6/6 600 м 
[Cu hum]
+12.6 -7.4 24 +12  1005.1  -2.1  732  282           
12 16.04.18 260 (З) 20000 м    9/3 1000 м средняя, верхняя 
[Sc|Ac lent|Cs]
+10.2 -7 29 +11  1003.8  -1.6  730  284    +12.9       
15 16.04.18 тихо ()   н/о    10/3 1000 м средняя 
[Sc|Ac As]
+1.5 -3.5 69 +2  1004.1  -0.6  730  293           
18 16.04.18 тихо ()   н/о    6/3 1000 м средняя, верхняя 
[Sc|Ac lent|Ci sp]
-0.6 -3.4 81 -1  1003.8  -0.5  730  295           
00 17.04.18 270 (З) 20000 м    4/3 1000 м средняя, верхняя 
[Sc|Ac lent|Ci sp]
+3.7 -4.8 54 +2  1005.9  1.6  731  291  -4.6        мокрая 
06 17.04.18 270 (З) 4{15}  20000 м    9/8 600 м кучево-дожд., средняя 
[Cb cap|Ac lent]
+9.8 -1.6 45 +9  1004.4  -0.8  731  284           
12 17.04.18 260 (З) 20000 м  {ливн. осадки}  9/8 600 м кучево-дожд., средняя 
[Cb cap|Ac lent]
+4.4 -1.1 67 +2  1007.4  0.3  733  291    +11.6     
15 17.04.18 250 (З) н/о    10/10 600 м кучево-дожд. 
[Cb cap]
+2.5 -1 78 +1  1007.5  -0.1  732  293           
21 17.04.18 260 (З) н/о  {ливн. осадки}  8/4 600 м кучево-дожд., средняя 
[Cb cap|Ac lent]
-1.8 -6.7 69 -5  1013.4  736  299           
00 18.04.18 250 (З) 20000 м  {ливн. осадки}  4/4 600 м кучево-дожд. 
[Cb cap]
-2.9 -7.1 73 -4  1016.1  2.4  738  301  -2.9    0.0  <0.5  равномерный
мокрый или
старый снег
100% 
03 18.04.18 270 (З) 5{10}  20000 м    9/9 600 м кучево-дожд. 
[Cb cap]
-0.5 -9.1 52 -4  1016.6  0.8  739  299           
06 18.04.18 300 (СЗ) 3{12}  20000 м    8/6 600 м кучево-дожд., средняя 
[Cb cap|Ac trans]
+1.9 -9.3 43 1017.1  0.8  739  297           
09 18.04.18 280 (З) 20000 м    8/6 600 м кучево-дожд., средняя 
[Cb cap|Ac trans]
+1.8 -11.5 37 1017.8  0.6  740  297           
12 18.04.18 300 (СЗ) 20000 м    4/3 600 м кучево-дожд., средняя 
[Cb cap|Ac trans]
+0.8 -9.9 45 -1  1018.4  0.5  740  298    +2.8       
15 18.04.18 тихо ()   н/о    3/3 1000 м 
[Sc]
-4.9 -7.7 81 -5  1020.1  741  305           
18 18.04.18 тихо ()   н/о    ясно 
-7.3 -9.1 87 -7  1021.7  1.2  742  308           
21 18.04.18 тихо ()   н/о    ясно 
-9.1 -9.8 95 -9  1022.6  0.7  742  310           
00 19.04.18 тихо ()   20000 м    3/0 верхняя 
[Ci fib]
-4.7 -7.1 83 -5  1023  0.9  743  305  -9.5        замёрзшая 
03 19.04.18 270 (З) 20000 м    8/6 600 м кучево-дожд., средняя, верхняя 
[Cb cap|Ac trans|Ci fib]
-0.6 -10.7 46 -3  1022.6  0.1  743  301           
06 19.04.18 270 (З) 20000 м    9/9 600 м кучево-дожд. 
[Cb cap]
+0.6 -12.1 38 -2  1021.5  -0.9  743  300           
09 19.04.18 260 (З) 4{10}  20000 м    8/8 600 м кучево-дожд., средняя 
[Cb cap|Ac trans]
+2.8 -11.2 35 +1  1020.3  -1  742  297           
Время (UTC), дата Ветер
(°,м/с) 
Видим.   Явления Облачность Т
(°С)
Тd
(°С)
f(%) Тe
(°С)
Pmin
(гПа)
dP
(гПа)
Po
(мм)
O2
(г/м3)
Тmin Tmax R s Состояние
почвы

Для получения пояснительной информации подведите курсор к названию столбца.

ПОГОДА Ирбейское - архив

Всё, что Вы хотите узнать о погоде Ирбейское - удобно и подробно!

Выберите нужную дату (начиная с 1 января 2015* года) и нажмите кнопку "Найти".
Будут отображены архивные сводки погоды по пункту Ирбейское, начиная с указанной даты.


Отображать данные в формате CSV (для использования в таблицах Excel)


Внимание! Наш архив погоды предназначен исключительно для личного некоммерческого использования в познавательных целях. Если Вам необходимы официальные справки о состоянии погоды (для производственных, юридических, коммерческих и т.п. целей), обращайтесь в органы Росгидромета.

*Примечание: данная дата относится к архиву по метеостанциям СССР (Россия, СНГ, Балтия).
Архив по метеостанциям Зарубежной Европы и Азии (кроме Китая) хранится 10 дней, по другим регионам земного шара (Китай, Африка, Америка, Австралия, Океания) - 1 день.

Ирбейское - район местоположения метеостанции


Название, широта, долгота, высота метеостанции:
Ирбейское 55.6°ш. 95.5°д. 252 м над ур. моря [Российская Федерация]

Дополнительная информация

В oтличие oт бoльшинства пoгoдных сайтoв мы публикуем пoдрoбную метеoинфoрмацию в детальнoм прoфессиoнальнoм фoрмате.

Характеристики температуры и влажнoсти вoздуха измеряются на высoте 2 м в тени вдали oт зданий и деревьев.
Скoрoсть ветра измеряется на высoте 10 м (на урoвне рoста челoвека скoрoсть ветра ниже в 1.5-2 раза). Если метеoстанция нахoдится в гoрoде или в лесу, тo скoрoсть ветра занижена на 2-4 м/с пo сравнению с oткрытым местoм. Скoрoсть ветра над акватoриями крупных рек и oзёр, а также на вершинах хoлмoв на 2-5 м/с выше, чем в oбычных услoвиях.
Атмoсфернoе давление в разных тoчках местнoсти мoжет значительнo oтличаться oт давления на метеoстанции, в зависимoсти oт услoвий рельефа (при пoдъёме на 10 м давление пoнижается примернo на 1 мм рт.ст.).